User: anonymous   Login
Location: Unspecified
(0.0000°N, 0.0000°E)
Time: 19:42:24
(UTC+00:00)
Language:

CHUBUSAT 3 - Orbit

View from above orbital plane
View from above orbital plane
View from above satellite
View from above satellite

Ground track
Ground track

The orbit data is extracted from the following two-line orbital elements,

1 41339U 16012C   18351.09996126  .00000296  00000-0  16346-4 0  9991
2 41339  31.0109 229.7867 0013472  91.6971 268.5203 15.00250889155316
Epoch (UTC): 17 December 2018 02:23:56
Eccentricity: 0.0013472
inclination: 31.0109°
perigee height: 557 km
apogee height: 575 km
right ascension of ascending node: 229.7867°
argument of perigee: 91.6971°
revolutions per day: 15.00250889
mean anomaly at epoch: 268.5203°
orbit number at epoch: 15531

The dashed part of the orbit path shows where the satellite is in the earth's shadow,  

DLR